Location: Grange Verzio
(44.5000°N, 6.9833°E)
Time: 17:12:28
(UTC+00:00)

USA 290 - Pass Details

Date: 01 February 2023
Orbit: 401 x 409 km, 73.6° (Epoch: 13 March)

Event Time Altitude Azimuth Distance (km) Brightness Sun altitude
Rises 17:29:23 0° 214° (SW) 2,334 6.9 -9.0°
Reaches altitude 10° 17:31:28 10° 221° (SW) 1,481 5.9 -9.4°
Maximum altitude 17:34:36 44° 295° (WNW) 588 3.4 -9.9°
Drops below altitude 10° 17:37:46 10° 9° (N) 1,502 4.8 -10.5°
Enters shadow 17:39:51 - 16° (NNE) 2,350 5.8 -10.8°
